Stations météo

réclame
Mon MeteoGroup
Montpellier, France (7643): Température de l'air & dewpoint: 18.05.2019 03:00:00 - 24.05.2019 03:00:00 (CEST)Montpellier, France (7643): Température de l'air 5cm: 18.05.2019 03:00:00 - 24.05.2019 03:00:00 (CEST)Montpellier, France (7643): Température de l'air -20cm & Température de l'air -100cm: 18.05.2019 03:00:00 - 24.05.2019 03:00:00 (CEST)Montpellier, France (7643): Vitesse du vent & gusts: 18.05.2019 03:00:00 - 24.05.2019 03:00:00 (CEST)Montpellier, France (7643): Direction du vent: 18.05.2019 03:00:00 - 24.05.2019 03:00:00 (CEST)Montpellier, France (7643): reduced air pressure: 18.05.2019 03:00:00 - 24.05.2019 03:00:00 (CEST)Montpellier, France (7643): visibility: 18.05.2019 03:00:00 - 24.05.2019 03:00:00 (CEST)Montpellier, France (7643): Ensoleillement: 18.05.2019 03:00:00 - 24.05.2019 03:00:00 (CEST)Montpellier, France (7643): Quantités de précipitations: 18.05.2019 03:00:00 - 24.05.2019 03:00:00 (CEST)
Date & Time tt [°C] td [°C] tt 5cm [°C] tt -20cm [°C] tt -100cm [°C] ff [km/h] ff [knt] fx [km/h] fx [knt] dd ppp [hPa] vv [km] sd [min] rr [mm]
24.05.2019 03:00:00 13,7 11,2 12,6 18,8 16,4 6 3 10 6 NNE 1014,5 42 0 0,0
24.05.2019 02:00:00 15,9 13,6 12,0 19,0 16,3 8 4 11 6 SSE 1014,7 59 0 0,0
24.05.2019 01:00:00 15,8 9,0 11,6 19,2 16,3 3 1 12 6 NW 1014,8 60 0 0,0
24.05.2019 00:00:00 16,6 8,8 11,7 19,5 16,3 7 4 14 7 SSW 1015,0 60 0 0,0
23.05.2019 23:00:00 18,3 8,5 12,5 19,7 16,3 10 6 16 9 W 1015,4 60 0 0,0
23.05.2019 22:00:00 18,4 8,6 13,7 19,9 16,3 10 5 16 8 WSW 1015,3 60 0 0,0
23.05.2019 21:00:00 19,1 9,0 15,7 20,2 16,3 14 8 24 13 WSW 1015,3 60 23 0,0
23.05.2019 20:00:00 19,7 10,1 19,1 20,3 16,3 18 10 29 16 WSW 1015,1 60 43 0,0
23.05.2019 19:00:00 20,4 9,9 21,3 20,3 16,3 23 12 29 15 SW 1015,1 60 52 0,0
23.05.2019 18:00:00 21,0 10,8 26,8 20,2 16,3 20 11 27 15 SW 1015,2 47 60 0,0
23.05.2019 17:00:00 21,9 12,2 30,8 20,0 16,3 19 10 29 16 SSW 1015,4 48 60 0,0
23.05.2019 16:00:00 21,5 11,2 33,0 19,7 16,3 19 10 31 17 SSW 1015,8 44 60 0,0
23.05.2019 15:00:00 21,7 12,0 37,2 19,1 16,3 18 10 29 15 S 1016,2 50 60 0,0
23.05.2019 14:00:00 22,6 9,7 40,3 18,6 16,3 19 10 28 15 SSW 1016,5 60 60 0,0
23.05.2019 13:00:00 23,5 9,1 36,7 18,0 16,2 16 9 22 12 SSW 1016,9 60 60 0,0
23.05.2019 12:00:00 23,0 8,3 31,0 17,6 16,3 13 7 18 10 SSE 1017,1 60 60 0,0
23.05.2019 11:00:00 22,3 8,8 25,4 17,4 16,3 11 6 18 10 SE 1017,2 19 60 0,0
23.05.2019 10:00:00 22,9 7,4 20,0 17,3 16,3 8 4 17 9 NNE 1017,5 60 60 0,0
23.05.2019 09:00:00 21,8 8,0 15,6 17,2 16,2 6 3 10 5 NNW 1017,4 59 60 0,0
23.05.2019 08:00:00 18,4 11,2 10,8 17,3 16,2 4 2 11 6 NNW 1017,1 17 60 0,0
23.05.2019 07:00:00 13,7 9,3 8,4 17,5 16,2 5 3 11 6 NW 1016,9 59 24 0,0
23.05.2019 06:00:00 13,4 8,7 8,2 17,8 16,2 6 4 9 5 NNW 1016,7 48 0 0,0
23.05.2019 05:00:00 13,3 9,0 8,9 18,0 16,2 5 3 10 5 NNW 1016,7 47 0 0,0
23.05.2019 04:00:00 14,2 10,2 9,1 18,2 16,2 5 3 11 6 W 1016,9 59 0 0,0
23.05.2019 03:00:00 15,3 9,4 9,7 18,4 16,2 9 5 13 7 N 1016,8 60 0 0,0
23.05.2019 02:00:00 14,3 9,9 10,6 18,7 16,2 9 5 13 7 N 1017,0 58 0 0,0
23.05.2019 01:00:00 15,8 11,6 11,5 19,0 16,2 9 5 11 6 N 1016,9 49 0 0,0
23.05.2019 00:00:00 15,0 11,9 12,1 19,2 16,2 6 3 9 5 NNE 1016,8 49 0 0,0
22.05.2019 23:00:00 15,4 12,5 12,5 19,5 16,2 6 3 13 7 NE 1017,0 54 0 0,0
22.05.2019 22:00:00 15,9 11,9 13,3 19,7 16,2 8 4 13 7 ESE 1016,3 59 0 0,0
22.05.2019 21:00:00 18,8 12,1 16,8 19,9 16,2 13 7 37 20 SW 1015,5 60 37 0,0
22.05.2019 20:00:00 20,3 12,8 18,9 20,0 16,2 24 13 39 21 SW 1015,0 60 56 0,0
22.05.2019 19:00:00 22,7 10,8 24,0 19,9 16,2 21 11 35 19 SSW 1014,9 60 60 0,0
22.05.2019 18:00:00 24,3 11,3 28,1 19,8 16,2 22 12 32 17 SSW 1015,1 59 60 0,0
22.05.2019 17:00:00 24,8 9,9 31,6 19,5 16,2 23 12 32 17 SSW 1015,2 57 60 0,0
22.05.2019 16:00:00 24,9 8,4 35,7 19,1 16,2 23 13 31 17 SW 1015,4 58 60 0,0
22.05.2019 15:00:00 25,2 9,1 38,5 18,5 16,2 24 13 32 17 SSW 1015,8 59 60 0,0
22.05.2019 14:00:00 24,4 8,8 34,0 18,0 16,2 21 12 32 18 SSW 1016,0 60 60 0,0
22.05.2019 13:00:00 25,7 6,3 31,5 17,5 16,2 17 9 30 16 NE 1016,2 60 60 0,0
22.05.2019 12:00:00 24,9 7,1 27,9 17,3 16,2 13 7 30 16 NNE 1016,4 60 60 0,0
22.05.2019 11:00:00 23,5 5,8 21,3 17,0 16,1 21 11 35 19 NNE 1016,3 10 60 0,0
22.05.2019 10:00:00 22,7 7,3 18,7 17,0 16,2 18 10 28 15 N 1016,3 20 60 0,0
22.05.2019 09:00:00 20,0 9,0 15,3 17,0 16,2 14 8 22 12 WNW 1016,2 20 60 0,0
22.05.2019 08:00:00 17,5 8,9 11,0 17,0 16,1 13 7 19 11 WNW 1016,4 59 60 0,0
22.05.2019 07:00:00 14,9 8,8 9,6 17,2 16,1 10 5 21 11 W 1016,0 49 16 0,0
22.05.2019 06:00:00 14,2 8,4 9,5 17,4 16,1 13 7 19 10 W 1015,7 60 0 0,0
22.05.2019 05:00:00 14,7 8,6 9,7 17,5 16,1 14 7 21 11 W 1015,5 60 0 0,0
22.05.2019 04:00:00 15,5 8,9 9,9 17,7 16,1 10 5 15 8 WNW 1015,5 60 0 0,0
22.05.2019 03:00:00 16,6 9,0 10,2 17,9 16,1 10 6 14 8 WNW 1015,5 60 0 0,0
22.05.2019 02:00:00 16,6 9,8 10,7 18,1 16,1 8 4 15 8 WNW 1015,5 60 0 0,0
22.05.2019 01:00:00 17,9 9,5 12,1 18,2 16,1 12 7 16 8 NW 1015,5 60 0 0,0
22.05.2019 00:00:00 18,5 9,8 12,6 18,4 16,1 12 7 16 9 NW 1015,6 60 0 0,0
21.05.2019 23:00:00 19,6 9,8 14,1 18,6 16,1 11 6 19 10 NW 1015,3 60 0 0,0
21.05.2019 22:00:00 19,9 10,3 14,0 18,7 16,1 11 6 28 15 WNW 1014,6 60 0 0,0
21.05.2019 21:00:00 20,6 11,2 15,1 18,8 16,1 22 12 35 19 NW 1013,9 60 34 0,0
21.05.2019 20:00:00 21,3 11,0 16,9 18,8 16,1 12 6 37 20 NW 1013,3 16 20 0,6
21.05.2019 19:00:00 24,7 9,4 23,7 18,7 16,1 27 14 38 21 NW 1012,8 60 60 0,0
21.05.2019 18:00:00 25,4 7,5 24,2 18,5 16,1 18 10 39 21 NNE 1012,6 60 47 0,0
21.05.2019 17:00:00 25,4 8,0 26,8 18,3 16,1 21 11 35 19 NNW 1012,8 17 44 0,0
21.05.2019 16:00:00 25,8 9,6 30,4 17,9 16,1 21 11 32 17 NNE 1012,9 60 57 0,0
21.05.2019 15:00:00 25,8 9,6 27,0 17,6 16,1 19 10 35 19 N 1013,0 18 36 0,0
21.05.2019 14:00:00 24,2 10,1 22,3 17,3 16,1 11 6 21 12 WNW 1013,2 10 8 0,0
21.05.2019 13:00:00 22,7 8,8 24,1 17,1 16,1 11 6 25 14 NW 1013,5 17 23 0,0
21.05.2019 12:00:00 22,8 8,1 24,8 16,8 16,1 13 7 30 16 N 1013,6 20 36 0,0
21.05.2019 11:00:00 22,2 10,0 22,9 16,6 16,1 13 7 28 15 W 1013,9 60 60 0,0
21.05.2019 10:00:00 20,2 9,4 18,6 16,5 16,1 19 10 25 14 W 1013,8 18 60 0,0
21.05.2019 09:00:00 18,1 10,2 14,4 16,5 16,1 17 9 24 13 WNW 1013,9 60 60 0,0
21.05.2019 08:00:00 15,6 9,5 11,3 16,6 16,1 18 10 24 13 W 1013,5 60 60 0,0
21.05.2019 07:00:00 14,0 9,0 10,3 16,7 16,1 13 7 18 10 WNW 1013,2 56 23 0,0
21.05.2019 06:00:00 13,1 8,4 10,4 16,9 16,1 9 5 16 9 W 1013,0 47 0 0,0
21.05.2019 05:00:00 13,3 8,6 10,5 17,0 16,1 8 5 13 7 W 1012,9 58 0 0,0
21.05.2019 04:00:00 14,2 8,6 11,6 17,2 16,1 8 4 17 9 WNW 1013,0 57 0 0,0
21.05.2019 03:00:00 15,2 8,9 11,9 17,3 16,1 11 6 19 11 NW 1013,0 60 0 0,0
21.05.2019 02:00:00 15,7 8,9 12,3 17,5 16,1 10 5 19 11 WNW 1013,0 60 0 0,0
21.05.2019 01:00:00 15,9 8,9 12,4 17,6 16,1 13 7 21 12 W 1013,2 60 0 0,0
21.05.2019 00:00:00 16,0 9,0 13,7 17,8 16,1 18 10 30 16 W 1012,9 60 0 0,0
20.05.2019 23:00:00 17,9 7,9 14,0 17,9 16,1 21 12 29 16 WNW 1012,4 60 0 0,0
20.05.2019 22:00:00 18,6 7,1 15,0 18,0 16,1 16 9 24 13 NW 1011,7 60 0 0,0
20.05.2019 21:00:00 20,2 7,5 17,3 18,1 16,1 21 11 35 19 NW 1010,9 60 36 0,0
20.05.2019 20:00:00 22,6 7,6 20,0 18,1 16,1 26 14 35 19 NW 1010,3 60 60 0,0
20.05.2019 19:00:00 23,1 7,2 22,0 18,1 16,1 23 12 37 20 NNW 1009,9 48 60 0,0
20.05.2019 18:00:00 23,1 8,0 23,6 17,9 16,0 23 13 39 21 NW 1009,6 45 60 0,0
20.05.2019 17:00:00 23,3 7,8 26,4 17,7 16,1 26 14 46 25 WNW 1009,4 20 60 0,0
20.05.2019 16:00:00 23,3 9,3 27,9 17,4 16,1 28 15 42 23 WNW 1009,7 20 60 0,0
20.05.2019 15:00:00 22,3 9,5 22,9 17,1 16,1 34 19 45 24 W 1009,9 20 37 0,0
20.05.2019 14:00:00 22,1 8,9 22,1 16,7 16,0 26 14 41 22 WNW 1009,9 51 39 0,0
20.05.2019 13:00:00 20,6 9,5 23,3 16,4 16,1 32 17 43 23 W 1009,9 52 32 0,0
20.05.2019 12:00:00 20,5 10,0 21,3 16,1 16,1 31 17 48 26 WNW 1009,6 41 54 0,0
20.05.2019 11:00:00 19,2 9,1 20,0 16,0 16,1 32 18 49 26 WNW 1009,8 20 55 0,0
20.05.2019 10:00:00 18,8 9,8 15,0 15,9 16,1 30 16 44 24 WNW 1009,5 52 27 0,0
20.05.2019 09:00:00 16,6 9,0 13,7 16,0 16,1 25 14 40 21 WNW 1009,2 60 14 0,0
20.05.2019 08:00:00 14,8 9,6 12,4 16,0 16,1 24 13 33 18 W 1009,0 60 18 0,0
20.05.2019 07:00:00 14,4 9,2 12,1 16,0 16,1 21 11 29 15 W 1008,6 60 0 0,0
20.05.2019 06:00:00 14,5 9,3 12,4 16,1 16,1 22 12 31 17 W 1008,0 60 0 0,0
20.05.2019 05:00:00 15,5 8,7 11,8 16,1 16,1 24 13 44 24 WNW 1007,8 60 0 0,0
20.05.2019 04:00:00 15,4 8,6 11,7 16,2 16,1 23 12 42 23 WNW 1007,8 60 0 0,0
20.05.2019 03:00:00 15,4 8,8 11,9 16,3 16,1 26 14 40 22 WNW 1008,1 60 0 0,0
20.05.2019 02:00:00 15,1 9,0 11,8 16,3 16,1 18 10 24 13 WNW 1008,3 60 0 0,0
20.05.2019 01:00:00 14,5 9,9 11,9 16,4 16,1 19 10 27 15 W 1008,3 60 0 0,0
20.05.2019 00:00:00 14,4 10,4 12,3 16,5 16,1 18 10 25 14 W 1008,3 56 0 0,0
19.05.2019 23:00:00 14,2 10,6 12,3 16,5 16,1 20 11 28 15 W 1008,3 51 0 0,0
19.05.2019 22:00:00 13,8 11,0 12,4 16,6 16,1 22 12 29 16 W 1007,9 30 0 0,0
19.05.2019 21:00:00 13,7 11,4 12,5 16,8 16,1 21 11 30 16 W 1007,3 58 0 0,0
19.05.2019 20:00:00 13,8 11,8 13,1 16,9 16,1 22 12 29 15 W 1007,2 50 0 0,0
19.05.2019 19:00:00 13,8 11,8 13,2 16,9 16,1 19 10 27 15 W 1007,3 20 0 1,8
19.05.2019 18:00:00 14,7 11,1 14,0 16,9 16,1 20 11 40 22 WNW 1007,5 15 0 1,0
19.05.2019 17:00:00 17,0 9,9 16,2 16,8 16,1 27 15 38 21 NW 1007,1 60 0 0,2
19.05.2019 16:00:00 18,4 8,4 19,5 16,6 16,0 22 12 37 20 NNW 1006,9 60 21 0,0
19.05.2019 15:00:00 19,3 8,0 20,3 16,4 16,1 23 13 37 20 NNW 1006,7 60 11 0,0
19.05.2019 14:00:00 18,7 7,8 18,8 16,3 16,0 20 11 32 17 NNW 1006,8 60 0 0,0
19.05.2019 13:00:00 18,0 7,4 18,6 16,1 16,1 20 11 30 16 NNW 1006,6 53 0 0,0
19.05.2019 12:00:00 18,7 7,8 19,3 15,9 16,0 11 6 22 12 NW 1006,7 60 18 0,0
19.05.2019 11:00:00 17,7 7,7 18,7 15,8 16,1 14 8 23 13 NW 1006,6 60 31 0,0
19.05.2019 10:00:00 16,5 8,5 14,8 15,8 16,1 13 7 18 10 NW 1006,6 60 33 0,0
19.05.2019 09:00:00 14,0 8,2 10,8 15,9 16,1 10 5 16 8 WNW 1006,9 59 12 0,0
19.05.2019 08:00:00 11,6 7,3 9,1 16,0 16,1 12 6 16 9 W 1006,6 60 0 0,0
19.05.2019 07:00:00 11,0 6,9 8,7 16,1 16,1 13 7 16 8 WSW 1006,6 60 0 0,0
19.05.2019 06:00:00 10,8 6,7 8,9 16,2 16,1 12 6 17 9 W 1006,5 60 0 0,0
19.05.2019 05:00:00 11,3 6,4 9,5 16,4 16,1 12 7 20 11 W 1006,6 60 0 0,0
19.05.2019 04:00:00 12,7 6,5 10,1 16,5 16,0 16 8 27 14 WNW 1006,7 60 0 0,0
19.05.2019 03:00:00 13,1 6,7 10,7 16,6 16,1 16 9 25 13 WNW 1007,0 60 0 0,0
19.05.2019 02:00:00 13,3 7,5 10,7 16,8 16,1 11 6 22 12 WNW 1007,4 60 0 0,0
19.05.2019 01:00:00 13,4 7,6 10,7 16,9 16,1 16 9 26 14 WNW 1007,5 10 0 0,0
19.05.2019 00:00:00 14,5 7,1 11,0 17,0 16,0 18 10 27 15 WNW 1007,7 60 0 0,0
18.05.2019 23:00:00 15,1 7,1 11,9 17,2 16,0 10 6 24 13 WNW 1007,7 60 0 0,0
18.05.2019 22:00:00 16,1 7,3 12,3 17,2 16,0 13 7 22 12 NW 1007,5 60 0 0,0
18.05.2019 21:00:00 17,1 7,2 14,4 17,3 16,0 15 8 26 14 WNW 1006,8 60 41 0,0
18.05.2019 20:00:00 18,4 7,8 15,7 17,4 16,0 18 10 39 21 NW 1006,2 59 31 0,0
18.05.2019 19:00:00 19,9 6,9 18,3 17,3 16,0 27 14 34 18 W 1005,7 60 44 0,0
18.05.2019 18:00:00 18,8 10,1 18,2 17,3 16,1 7 4 14 7 SE 1005,6 60 0 0,0
18.05.2019 17:00:00 19,0 9,5 18,9 17,2 16,0 11 6 20 11 E 1005,3 60 4 0,0
18.05.2019 16:00:00 19,9 8,2 19,5 17,0 16,1 9 5 22 12 NW 1005,4 60 4 0,0
18.05.2019 15:00:00 19,6 8,0 22,6 16,7 16,0 6 4 31 17 NNW 1005,6 60 20 0,0
18.05.2019 14:00:00 20,6 10,7 23,8 16,4 16,0 11 6 24 13 NNW 1005,7 60 35 0,0
18.05.2019 13:00:00 18,6 8,0 17,6 16,1 16,0 16 8 30 16 WNW 1006,3 60 23 0,0
18.05.2019 12:00:00 16,8 8,0 16,6 16,1 16,1 19 10 30 16 WNW 1006,6 60 0 0,0
18.05.2019 11:00:00 15,9 10,0 16,7 15,9 16,0 16 9 26 14 WNW 1006,4 60 6 0,0
18.05.2019 10:00:00 15,1 10,5 15,1 15,9 16,0 18 10 22 12 W 1006,6 53 0 0,0
18.05.2019 09:00:00 14,4 10,4 12,6 15,9 16,0 7 4 12 7 WNW 1006,6 60 34 0,0
18.05.2019 08:00:00 12,4 10,6 10,7 15,9 16,0 4 2 7 4 NW 1006,3 59 2 0,0
18.05.2019 07:00:00 11,4 10,1 10,3 16,0 16,0 4 2 25 14 NW 1006,0 59 2 0,0
18.05.2019 06:00:00 11,8 9,9 10,8 16,1 16,0 19 11 29 16 W 1005,3 60 0 0,0
18.05.2019 05:00:00 11,9 10,5 11,1 16,1 16,0 21 11 29 16 W 1005,6 60 0 0,0
18.05.2019 04:00:00 11,7 10,8 11,1 16,2 16,0 20 11 31 17 W 1006,0 20 0 0,0
18.05.2019 03:00:00 11,7 10,6 11,1 16,3 16,0 12 7 22 12 WNW 1006,6 46 0 0,0

tt = Température de l'air
td = dewpoint
tt 5cm = Température de l'air 5cm
tt -20cm = Température de l'air -20cm
tt -100cm = Température de l'air -100cm
ff = Vitesse du vent
fx = gusts
dd = Direction du vent
ppp = reduced air pressure
vv = visibility
sd = Ensoleillement
rr = Quantités de précipitations

stations d'obs. à proximité